This is the latest recevied weather packets stored in our database for station/object W9LRT-WX. If no packets are shown the sender has not sent any weather packets the latest 1 day(s).
| Time | Temp. | Humidity | Pressure | Rain* | Wind** | Luminosity | Snow |
|---|---|---|---|---|---|---|---|
| 1778021492 | 10.56° C | 64% | 1007.7 hPa | 0 mm | 0.89 m/s, 15° | 49 W/m² | - |
| 1778020589 | 11.11° C | 60% | 1007.8 hPa | 0 mm | 0.45 m/s, 9° | 49 W/m² | - |
| 1778019690 | 11.11° C | 58% | 1007.6 hPa | 0 mm | 0.45 m/s, 0° | 39 W/m² | - |
| 1778018789 | 11.11° C | 58% | 1007.6 hPa | 0 mm | 0.45 m/s, 9° | 42 W/m² | - |
| 1778017890 | 11.67° C | 56% | 1007.6 hPa | 0 mm | 1.34 m/s, 10° | 58 W/m² | - |
| 1778016989 | 11.67° C | 54% | 1007.5 hPa | 0 mm | 1.34 m/s, 15° | 113 W/m² | - |
| 1778016088 | 11.67° C | 56% | 1007.5 hPa | 0 mm | 1.34 m/s, 0° | 171 W/m² | - |
| 1778015189 | 12.22° C | 52% | 1007.6 hPa | 0 mm | 2.24 m/s, 0° | 148 W/m² | - |
| 1778014290 | 12.22° C | 56% | 1007.4 hPa | 0 mm | 2.68 m/s, 0° | 179 W/m² | - |
| 1778013393 | 12.78° C | 58% | 1007.2 hPa | 0 mm | 1.79 m/s, 0° | 211 W/m² | - |
| 1778012490 | 12.78° C | 60% | 1007.2 hPa | 0 mm | 1.79 m/s, 9° | 204 W/m² | - |
| 1778011589 | 13.33° C | 62% | 1007.1 hPa | 0 mm | 1.34 m/s, 350° | 190 W/m² | - |
| 1778010689 | 13.33° C | 65% | 1007.3 hPa | 0 mm | 1.34 m/s, 253° | 260 W/m² | - |
| 1778009790 | 13.33° C | 65% | 1007.4 hPa | 0 mm | 1.34 m/s, 0° | 397 W/m² | - |
| 1778008889 | 13.33° C | 65% | 1007.5 hPa | 0 mm | 1.34 m/s, 275° | 504 W/m² | - |
| 1778007990 | 12.78° C | 66% | 1007.8 hPa | 0 mm | 1.34 m/s, 0° | 508 W/m² | - |
| 1778007089 | 12.78° C | 66% | 1007.9 hPa | 0 mm | 1.34 m/s, 250° | 364 W/m² | - |
| 1778006190 | 13.33° C | 69% | 1007.8 hPa | 0 mm | 1.34 m/s, 284° | 744 W/m² | - |
| 1778005292 | 12.22° C | 71% | 1007.7 hPa | 0 mm | 2.24 m/s, 0° | 408 W/m² | - |
| 1778004386 | 12.22° C | 70% | 1007.7 hPa | 0 mm | 1.34 m/s, 0° | 450 W/m² | - |
| 1778003489 | 11.67° C | 72% | 1007.6 hPa | 0 mm | 1.79 m/s, 327° | 900 W/m² | - |
| 1778002587 | 11.67° C | 72% | 1007.8 hPa | 0 mm | 0.89 m/s, 169° | 580 W/m² | - |
| 1778001685 | 11.67° C | 70% | 1007.7 hPa | 0 mm | 0.89 m/s, 24° | 680 W/m² | - |
| 1778000787 | 11.11° C | 72% | 1007.9 hPa | 0 mm | 0.89 m/s, 9° | 947 W/m² | - |
| 1777999885 | 9.44° C | 73% | 1008 hPa | 0 mm | 1.34 m/s, 0° | 990 W/m² | - |
* Rain latest hour (hover to see other rain measurements)
** Current wind speed in m/s (hover to see current wind gust speed)